Date,TemperatureHighF,TemperatureAvgF,TemperatureLowF,DewpointHighF,DewpointAvgF,DewpointLowF,HumidityHigh,HumidityAvg,HumidityLow,PressureMaxIn,PressureMinIn,WindSpeedMaxMPH,WindSpeedAvgMPH,GustSpeedMaxMPH,PrecipitationSumIn
2013-1-1,36,30,16,27,16,4,78,59,43,29.80,29.55,11,2,0,0.08
2013-1-2,27,17,6,16,5,-7,70,59,49,29.98,29.77,8,1,0,0.00
2013-1-3,24,11,2,2,-3,-7,68,53,34,30.00,29.86,4,0,0,0.00
2013-1-4,37,27,7,24,18,1,85,71,57,29.85,29.65,10,1,0,0.00
2013-1-5,40,32,20,24,19,15,81,61,39,30.14,29.68,8,1,0,0.04
2013-1-6,42,31,19,29,24,15,90,77,58,30.10,29.80,5,0,0,0.03
2013-1-7,34,30,23,29,25,17,90,81,65,30.28,29.83,6,0,0,0.00
2013-1-8,45,34,25,28,26,23,94,74,48,30.24,30.11,6,0,0,0.00
2013-1-9,42,34,25,34,27,21,87,75,56,30.28,29.83,7,0,0,0.00
2013-1-10,46,40,31,31,26,24,75,58,46,30.41,29.86,15,3,0,0.01
2013-1-11,39,33,26,37,28,22,95,81,68,30.40,30.12,2,0,0,0.11
2013-1-12,43,40,38,43,39,36,100,96,95,30.11,30.01,2,0,0,0.03
2013-1-13,50,45,40,49,44,39,98,97,93,30.03,29.85,4,0,0,0.01
2013-1-14,62,50,39,52,42,27,96,76,48,30.13,29.72,6,1,0,0.00
2013-1-15,41,36,31,29,26,23,79,68,56,30.20,30.10,2,0,0,0.00
2013-1-16,32,31,28,31,28,24,95,90,76,30.13,29.69,0,0,0,0.00
2013-1-17,42,32,27,35,25,8,96,77,44,29.98,29.68,6,1,0,0.33
2013-1-18,27,19,13,11,-1,-9,69,44,30,30.31,29.95,7,1,0,0.00
2013-1-19,46,34,19,30,21,7,76,58,44,30.24,29.74,15,2,0,0.12
2013-1-20,53,40,27,32,24,11,77,56,28,29.78,29.38,11,2,0,0.02
2013-1-21,27,24,19,20,8,-1,90,53,38,29.95,29.67,6,1,0,0.00
2013-1-22,26,20,11,19,9,-4,90,66,32,29.94,29.63,8,1,0,0.00
2013-1-23,13,8,2,0,-9,-13,64,47,33,30.01,29.92,9,1,0,0.00
2013-1-24,15,8,-1,-7,-12,-15,55,42,32,30.06,29.91,12,2,0,0.00
2013-1-25,22,14,6,-1,-5,-7,56,43,29,30.15,29.95,11,1,0,0.00
2013-1-26,24,17,11,10,2,-6,86,57,28,30.08,29.88,5,1,0,0.00
2013-1-27,29,19,13,3,-1,-7,65,42,25,30.33,30.07,9,1,0,0.00
2013-1-28,29,22,14,23,9,-4,92,61,26,30.32,29.92,0,0,0,0.00
2013-1-29,36,29,23,31,26,21,94,88,77,30.08,29.92,3,0,0,0.13
2013-1-30,59,45,32,57,43,31,97,95,89,30.04,29.33,13,1,0,0.30
2013-1-31,62,47,30,59,36,12,95,68,41,29.42,28.80,18,4,0,0.37
2013-2-1,34,28,18,15,9,6,64,47,33,29.94,29.43,15,2,0,0.00
2013-2-2,29,23,15,12,7,4,68,53,37,30.11,29.92,8,0,0,0.00
2013-2-3,28,24,20,21,18,12,92,78,55,29.93,29.59,7,0,0,0.00
2013-2-4,31,24,20,18,10,3,82,56,33,29.78,29.58,12,1,0,0.00
2013-2-5,30,22,15,17,9,3,76,58,40,29.91,29.78,3,0,0,0.00
2013-2-6,39,28,22,26,18,2,91,67,39,30.18,29.81,6,1,0,0.02
2013-2-7,28,21,15,6,-1,-6,53,39,24,30.41,30.17,3,0,0,0.00
2013-2-8,29,20,16,28,16,6,95,85,48,30.39,29.58,16,3,0,0.00
2013-2-9,23,18,14,21,15,8,93,86,72,30.04,29.48,18,4,0,0.00
2013-2-10,39,23,9,14,7,2,74,54,31,30.25,30.04,4,0,0,0.04
2013-2-11,38,27,14,37,23,4,96,84,62,30.23,29.48,1,0,0,0.27
2013-2-12,46,38,34,34,30,28,97,76,51,29.72,29.45,8,1,0,0.02
2013-2-13,44,35,28,28,24,22,81,68,45,29.74,29.60,8,0,0,0.00
2013-2-14,44,35,28,26,23,21,88,65,43,29.86,29.59,6,0,0,0.00
2013-2-15,52,38,24,34,29,22,91,73,48,29.86,29.77,13,1,0,0.00
2013-2-16,40,35,30,32,27,20,94,76,52,29.83,29.61,6,1,0,0.02
2013-2-17,31,22,16,20,11,3,89,65,43,29.61,29.21,15,4,0,0.00
2013-2-18,32,22,14,5,1,-3,59,42,24,30.00,29.48,12,3,0,0.00
2013-2-19,41,33,21,39,20,2,96,63,34,30.02,29.44,4,0,0,0.40
2013-2-20,40,33,27,39,23,15,97,67,47,29.62,29.38,8,1,0,0.00
2013-2-21,30,26,23,17,13,10,72,59,47,30.04,29.60,11,2,0,0.00
2013-2-22,40,30,22,26,21,15,82,69,45,30.27,30.04,10,1,0,0.00
2013-2-23,39,34,30,34,30,25,94,83,71,30.22,29.84,4,0,0,0.04
2013-2-24,37,34,30,36,32,29,96,95,94,29.83,29.61,7,2,0,0.34
2013-2-25,41,33,28,32,30,26,95,87,66,30.11,29.78,3,0,0,0.37
2013-2-26,42,35,27,36,31,26,96,86,71,30.23,30.07,6,0,0,0.00
2013-2-27,41,38,34,40,36,31,96,91,76,30.08,29.44,17,6,0,1.70
2013-2-28,48,38,33,37,35,32,96,86,64,29.51,29.41,7,0,0,0.01
2013-3-1,41,36,34,33,31,29,90,80,66,29.56,29.42,6,0,0,0.00
2013-3-2,46,37,31,30,29,27,84,73,53,29.55,29.48,5,0,0,0.00
2013-3-3,40,35,30,34,30,26,93,83,71,29.52,29.43,3,0,0,0.06
2013-3-4,39,33,30,27,24,22,78,70,59,29.61,29.44,9,2,0,0.00
2013-3-5,43,36,30,34,29,22,90,76,61,29.96,29.61,6,1,0,0.00
2013-3-6,39,36,33,35,33,29,94,86,68,30.04,29.95,19,7,0,0.12
2013-3-7,34,32,30,31,29,27,94,88,79,30.01,29.90,14,5,0,0.10
2013-3-8,44,35,29,30,26,21,95,74,45,30.04,29.85,13,3,0,0.20
2013-3-9,42,36,28,31,26,20,94,68,45,30.25,30.04,7,2,0,0.03
2013-3-10,41,32,24,32,28,23,94,85,68,30.30,30.19,7,1,0,0.01
2013-3-11,52,40,31,39,34,30,94,80,50,30.21,30.03,7,1,0,0.00
2013-3-12,52,45,39,50,43,38,97,94,86,30.04,29.61,7,0,0,0.33
2013-3-13,53,44,35,49,34,23,97,70,43,29.65,29.57,7,1,0,0.00
2013-3-14,37,32,22,24,18,5,77,58,45,29.68,29.55,9,1,0,0.00
2013-3-15,41,28,18,28,12,4,83,52,27,29.72,29.50,8,1,0,0.00
2013-3-16,37,32,26,28,16,10,82,53,34,29.77,29.52,5,1,0,0.00
2013-3-17,36,29,21,15,9,0,73,46,28,30.21,29.77,8,1,0,0.00
2013-3-18,36,27,15,24,11,0,72,52,29,30.34,30.15,6,0,0,0.00
2013-3-19,33,32,26,32,30,24,96,94,73,30.14,29.52,12,3,0,0.23
2013-3-20,38,30,24,29,24,22,94,80,60,29.67,29.57,7,1,0,0.46
2013-3-21,38,31,23,28,22,17,92,72,43,29.67,29.50,6,0,0,0.19
2013-3-22,42,34,28,26,21,17,93,62,38,29.58,29.48,7,1,0,0.00
2013-3-23,43,35,27,24,21,18,76,58,40,29.62,29.49,14,2,0,0.01
2013-3-24,49,38,31,32,26,22,86,62,38,29.68,29.61,9,1,0,0.00
2013-3-25,40,35,29,34,30,24,86,81,76,29.66,29.44,11,2,0,0.00
2013-3-26,52,41,30,30,24,19,82,53,29,29.64,29.44,8,1,0,0.00
2013-3-27,55,42,32,35,27,21,87,56,35,29.75,29.61,8,1,0,0.00
2013-3-28,47,42,36,36,34,30,94,75,53,29.89,29.75,6,1,0,0.04
2013-3-29,57,46,37,38,33,30,79,63,41,29.92,29.84,4,1,0,0.00
2013-3-30,56,46,36,33,27,16,79,51,26,29.98,29.88,4,0,0,0.00
2013-3-31,58,44,28,39,28,18,85,57,30,30.00,29.68,8,1,0,0.02
2013-4-1,59,46,34,45,36,13,96,73,36,29.66,29.37,6,1,0,0.39
2013-4-2,40,34,29,16,13,9,56,42,29,29.78,29.65,11,2,0,0.01
2013-4-3,47,37,28,16,12,5,58,38,20,29.99,29.77,9,2,0,0.00
2013-4-4,56,43,29,24,16,12,59,37,19,30.14,29.89,7,1,0,0.00
2013-4-5,60,46,38,34,27,22,69,48,27,29.89,29.51,8,2,0,0.00
2013-4-6,45,36,29,22,10,4,54,35,19,30.22,29.75,10,2,0,0.00
2013-4-7,55,43,25,39,26,13,76,55,28,30.22,29.86,12,1,0,0.00
2013-4-8,64,50,42,42,39,34,90,69,32,30.00,29.82,6,1,0,0.00
2013-4-9,66,52,43,51,43,38,93,75,47,29.98,29.75,7,0,0,0.11
2013-4-10,55,47,44,49,44,41,96,90,76,29.89,29.76,6,0,0,0.59
2013-4-11,48,44,39,46,39,33,96,84,68,30.04,29.73,4,1,0,0.13
2013-4-12,42,37,36,37,32,27,100,83,58,30.10,29.71,14,5,0,0.46
2013-4-13,50,40,34,40,37,33,95,88,64,29.81,29.66,8,1,0,0.07
2013-4-14,54,45,38,39,34,30,94,68,42,30.09,29.80,5,1,0,0.00
2013-4-15,51,42,32,39,35,29,94,78,52,30.28,30.09,9,1,0,0.00
2013-4-16,66,52,36,52,42,34,94,71,44,30.29,29.90,14,1,0,0.00
2013-4-17,66,57,44,53,36,29,81,49,26,30.22,29.90,9,1,0,0.00
2013-4-18,55,48,35,42,36,29,86,65,44,30.34,30.05,9,2,0,0.00
2013-4-19,77,63,49,63,55,42,94,78,54,30.04,29.52,2,0,0,0.00
2013-4-20,68,53,43,64,41,24,95,66,37,30.08,29.47,8,1,0,0.37
2013-4-21,51,41,32,29,24,20,83,53,32,30.57,30.09,11,1,0,0.00
2013-4-22,48,40,30,36,31,26,88,73,50,30.67,30.50,13,3,0,0.00
2013-4-23,42,40,38,40,37,31,96,89,74,30.50,30.04,11,3,0,0.10
2013-4-24,65,52,41,55,47,40,96,84,67,30.03,29.67,9,2,0,0.02
2013-4-25,64,56,44,52,37,26,92,54,29,30.16,29.68,7,1,0,0.04
2013-4-26,54,46,36,41,35,28,94,68,41,30.32,30.16,12,1,0,0.00
2013-4-27,61,50,36,42,37,33,94,66,41,30.31,30.18,5,0,0,0.00
2013-4-28,60,50,37,45,40,34,91,70,45,30.23,30.12,6,1,0,0.00
2013-4-29,66,53,41,51,41,33,86,64,37,30.16,30.08,0,0,0,0.00
2013-4-30,68,54,40,43,33,19,80,49,17,30.27,30.13,5,0,0,0.00
2013-5-1,65,52,36,46,37,32,88,59,30,30.36,30.26,0,0,0,0.00
2013-5-2,72,51,38,49,41,36,90,71,35,30.39,30.27,11,1,0,0.00
2013-5-3,54,47,39,45,41,37,94,79,65,30.43,30.27,9,1,0,0.00
2013-5-4,53,46,37,46,40,35,94,81,58,30.27,30.21,7,1,0,0.00
2013-5-5,56,46,34,44,39,32,96,79,59,30.23,30.15,10,1,0,0.00
2013-5-6,57,46,35,50,43,33,97,90,75,30.18,30.05,5,0,0,0.00
2013-5-7,72,57,39,59,51,38,97,81,53,30.07,29.99,2,0,0,0.01
2013-5-8,64,58,51,60,55,49,96,90,80,30.12,29.96,7,0,0,0.04
2013-5-9,59,56,54,58,55,53,97,96,93,29.97,29.79,4,0,0,0.53
2013-5-10,71,59,53,63,56,52,98,91,76,29.84,29.78,3,0,0,0.01
2013-5-11,70,62,52,64,59,51,98,90,77,29.79,29.58,4,0,0,0.12
2013-5-12,71,60,49,61,52,31,98,77,44,29.67,29.44,6,0,0,0.06
2013-5-13,59,50,42,36,31,28,67,50,34,29.90,29.68,9,1,0,0.00
2013-5-14,60,50,38,38,32,28,82,54,31,29.93,29.83,5,1,0,0.00
2013-5-15,65,52,38,52,39,30,95,66,29,29.93,29.55,4,0,0,0.10
2013-5-16,81,65,47,53,45,38,97,56,23,29.69,29.49,5,0,0,0.00
2013-5-17,67,57,47,46,43,41,85,61,45,30.09,29.70,5,0,0,0.00
2013-5-18,68,54,44,52,47,42,93,78,39,30.19,30.10,5,0,0,0.00
2013-5-19,60,53,50,53,50,48,95,88,75,30.25,30.13,4,0,0,0.03
2013-5-20,78,64,51,66,59,50,97,86,64,30.12,29.80,4,0,0,0.07
2013-5-21,58,54,50,57,53,49,97,95,88,29.94,29.82,9,2,0,0.08
2013-5-22,56,52,49,53,51,49,98,95,86,29.93,29.76,5,1,0,1.04
2013-5-23,74,60,51,69,58,50,98,93,83,29.82,29.69,2,0,0,0.10
2013-5-24,72,63,52,68,61,50,98,92,77,29.72,29.53,6,0,0,0.76
2013-5-25,51,48,39,50,47,38,97,96,94,29.71,29.56,11,2,0,0.67
2013-5-26,58,48,38,45,40,37,96,77,54,29.94,29.54,10,2,0,0.10
2013-5-27,70,56,40,45,40,36,93,59,29,30.06,29.94,4,0,0,0.00
2013-5-28,68,56,43,51,44,39,95,68,35,30.13,30.06,2,0,0,0.00
2013-5-29,63,57,50,61,56,48,97,96,93,30.07,29.87,5,0,0,0.32
2013-5-30,88,74,58,70,64,57,98,76,45,29.95,29.87,1,0,0,0.00
2013-5-31,94,81,67,71,67,64,92,65,37,29.96,29.79,0,0,0,0.00
2013-6-1,94,83,70,73,67,59,85,61,32,29.83,29.71,0,0,0,0.00
2013-6-2,92,79,68,72,68,63,93,69,39,29.74,29.57,0,0,0,0.01
2013-6-3,78,69,59,68,64,50,96,83,57,29.73,29.62,2,0,0,0.21
2013-6-4,69,61,52,50,46,43,77,59,42,29.98,29.69,3,0,0,0.00
2013-6-5,70,60,50,52,48,42,85,65,37,30.06,29.98,1,0,0,0.00
2013-6-6,66,60,52,56,53,50,93,80,62,30.08,30.00,1,0,0,0.00
2013-6-7,57,54,52,54,53,51,97,94,88,30.01,29.75,12,2,0,1.56
2013-6-8,77,63,53,65,58,52,97,85,64,29.87,29.52,10,1,0,0.70
2013-6-9,79,68,56,62,58,55,96,72,44,30.04,29.87,0,0,0,0.00
2013-6-10,66,60,55,58,56,53,96,85,72,30.11,29.93,3,0,0,0.34
2013-6-11,60,56,54,56,54,53,97,95,86,29.93,29.47,9,2,0,1.60
2013-6-12,68,60,55,60,57,54,98,88,70,29.69,29.44,4,0,0,0.05
2013-6-13,68,59,53,59,55,51,96,86,61,29.69,29.60,3,0,0,0.18
2013-6-14,75,61,53,60,55,52,97,82,46,29.65,29.55,5,0,0,0.42
2013-6-15,78,66,56,56,51,45,92,61,33,29.80,29.65,1,0,0,0.00
2013-6-16,75,66,54,61,56,50,88,70,48,29.81,29.59,0,0,0,0.00
2013-6-17,85,69,60,72,62,57,95,80,46,29.77,29.64,2,0,0,0.07
2013-6-18,72,62,57,63,58,55,97,89,66,29.84,29.76,3,0,0,0.12
2013-6-19,72,63,54,56,53,49,97,72,47,30.02,29.81,1,0,0,0.00
2013-6-20,75,64,50,60,53,47,89,69,46,30.14,30.02,0,0,0,0.00
2013-6-21,84,70,58,65,59,52,89,70,36,30.12,30.07,3,0,0,0.00
2013-6-22,85,73,61,69,64,59,96,74,51,30.09,29.98,0,0,0,0.00
2013-6-23,89,75,63,75,68,61,95,79,59,30.02,29.84,0,0,0,0.13
2013-6-24,94,80,68,74,70,65,95,74,46,29.88,29.73,0,0,0,0.13
2013-6-25,90,78,68,75,70,67,96,79,53,29.79,29.60,0,0,0,0.58
2013-6-26,81,71,60,73,68,60,97,91,70,29.76,29.59,4,0,0,0.49
2013-6-27,66,62,58,63,60,58,98,95,87,29.77,29.67,4,0,0,0.16
2013-6-28,82,67,56,75,65,55,98,94,76,29.68,29.37,5,1,0,0.36
2013-6-29,85,75,67,74,69,66,97,84,64,29.59,29.40,0,0,0,0.00
2013-6-30,87,77,68,75,70,67,96,80,60,29.81,29.59,0,0,0,0.00
2013-7-1,80,73,69,74,71,68,97,93,79,29.96,29.81,0,0,0,1.97
2013-7-2,76,66,59,75,65,58,98,97,92,30.11,29.96,4,1,0,0.14
2013-7-3,83,69,59,75,66,58,98,91,75,30.10,29.99,0,0,0,0.01
2013-7-4,92,83,73,78,74,71,95,77,58,30.07,29.95,0,0,0,0.00
2013-7-5,93,84,75,79,75,73,92,75,56,30.03,29.89,0,0,0,0.00
2013-7-6,89,81,74,76,73,69,90,77,57,29.94,29.84,0,0,0,0.00
2013-7-7,90,79,70,77,70,66,90,75,54,29.89,29.79,0,0,0,0.00
2013-7-8,80,72,64,75,68,63,95,89,78,29.96,29.79,0,0,0,0.01
2013-7-9,71,66,64,65,64,62,96,90,81,30.00,29.94,2,0,0,0.01
2013-7-10,78,69,63,74,68,62,97,95,85,29.98,29.67,3,0,0,0.02
2013-7-11,83,75,69,76,72,68,97,93,77,29.82,29.64,0,0,0,0.07
2013-7-12,76,69,63,68,61,57,96,76,55,30.10,29.83,3,0,0,0.00
2013-7-13,76,69,62,66,63,60,95,82,60,30.21,30.10,0,0,0,0.00
2013-7-14,88,76,65,76,71,64,97,85,63,30.19,30.08,0,0,0,0.00
2013-7-15,89,79,70,77,73,69,96,81,59,30.08,29.97,0,0,0,0.00
2013-7-16,91,78,68,77,70,65,92,76,53,30.05,29.99,0,0,0,0.00
2013-7-17,93,81,68,77,72,66,96,77,53,30.06,29.85,0,0,0,0.00
2013-7-18,87,77,72,74,71,69,95,82,61,29.90,29.82,0,0,0,0.02
2013-7-19,96,83,69,78,74,69,97,77,51,29.82,29.57,0,0,0,0.01
2013-7-20,91,82,73,80,72,67,95,73,60,29.67,29.52,0,0,0,0.48
2013-7-21,75,71,65,67,65,58,95,82,58,29.89,29.68,0,0,0,0.00
2013-7-22,76,70,66,70,67,64,97,91,76,29.92,29.79,0,0,0,0.00
2013-7-23,73,69,66,72,68,65,98,96,93,29.79,29.43,0,0,0,0.89
2013-7-24,84,74,64,75,67,56,98,81,59,29.85,29.47,3,0,0,0.01
2013-7-25,65,61,59,59,55,51,96,81,72,30.01,29.86,6,1,0,0.24
2013-7-26,72,66,60,67,63,59,97,92,81,29.96,29.80,6,0,0,0.08
2013-7-27,84,72,60,71,65,59,96,80,52,29.93,29.86,2,0,0,0.00
2013-7-28,72,67,64,69,65,63,97,93,87,29.92,29.88,3,0,0,0.02
2013-7-29,73,68,64,70,66,63,98,95,88,29.94,29.85,0,0,0,0.01
2013-7-30,80,71,60,67,62,57,97,75,47,29.98,29.91,0,0,0,0.00
2013-7-31,77,69,59,64,61,57,94,77,53,30.02,29.93,0,0,0,0.00
2013-8-1,80,69,59,69,64,58,97,84,63,29.93,29.77,0,0,0,0.02
2013-8-2,82,70,64,70,64,60,97,82,48,29.77,29.66,0,0,0,0.42
2013-8-3,80,70,63,66,62,58,92,75,53,29.74,29.64,1,0,0,0.00
2013-8-4,79,68,58,63,58,54,89,72,50,29.76,29.66,0,0,0,0.00
2013-8-5,75,64,56,55,50,41,89,62,36,29.93,29.76,3,0,0,0.00
2013-8-6,75,63,50,58,51,45,90,68,43,30.05,29.93,0,0,0,0.00
2013-8-7,76,65,53,65,57,51,95,77,52,30.08,30.00,0,0,0,0.00
2013-8-8,82,71,62,73,66,55,96,83,68,30.02,29.88,0,0,0,0.10
2013-8-9,74,72,70,73,70,69,98,94,90,29.91,29.61,0,0,0,1.53
2013-8-10,82,73,62,70,63,53,98,74,40,29.89,29.66,0,0,0,0.01
2013-8-11,79,67,55,59,56,52,92,71,45,29.96,29.88,0,0,0,0.00
2013-8-12,82,68,56,63,59,54,96,76,45,29.91,29.80,0,0,0,0.00
2013-8-13,74,67,62,69,64,60,96,91,76,29.80,29.57,0,0,0,0.02
2013-8-14,74,66,59,63,57,51,98,74,50,29.82,29.54,4,0,0,0.00
2013-8-15,78,64,53,58,54,50,91,71,46,29.99,29.83,0,0,0,0.00
2013-8-16,79,66,53,60,56,51,94,74,45,30.07,29.98,1,0,0,0.00
2013-8-17,75,65,55,63,58,54,95,78,55,30.17,30.07,0,0,0,0.00
2013-8-18,79,67,56,67,62,54,97,83,60,30.17,29.96,0,0,0,0.00
2013-8-19,82,71,60,67,63,59,95,77,55,29.96,29.82,0,0,0,0.00
2013-8-20,86,73,63,69,65,61,92,75,50,29.97,29.85,0,0,0,0.00
2013-8-21,89,75,63,72,66,61,93,76,49,30.02,29.89,0,0,0,0.00
2013-8-22,88,76,65,72,68,63,92,77,50,29.91,29.69,0,0,0,0.00
2013-8-23,79,70,62,69,61,51,91,73,52,30.02,29.70,0,0,0,0.00
2013-8-24,74,63,52,55,50,46,89,66,38,30.21,30.02,3,0,0,0.00
2013-8-25,76,65,52,62,54,49,91,70,43,30.25,30.05,0,0,0,0.00
2013-8-26,82,72,63,70,64,57,91,76,62,30.05,29.75,2,0,0,0.00
2013-8-27,80,72,64,70,67,62,95,83,64,29.79,29.72,0,0,0,0.00
2013-8-28,76,67,60,69,64,59,97,90,75,29.89,29.75,5,0,0,0.00
2013-8-29,65,64,61,65,61,59,97,92,85,29.99,29.86,11,1,0,0.03
2013-8-30,84,70,61,70,64,59,94,82,59,29.92,29.69,0,0,0,0.00
2013-8-31,81,74,69,75,71,66,94,88,81,29.72,29.66,0,0,0,0.00
2013-9-1,85,75,69,75,71,68,97,89,67,29.77,29.66,0,0,0,0.21
2013-9-2,72,70,68,71,69,67,98,97,94,29.76,29.61,0,0,0,1.19
2013-9-3,80,72,64,74,69,60,98,90,73,29.68,29.58,0,0,0,0.00
2013-9-4,81,69,59,63,59,57,94,74,47,29.79,29.67,0,0,0,0.00
2013-9-5,66,61,50,61,55,45,92,81,68,30.04,29.74,2,0,0,0.01
2013-9-6,70,56,43,50,45,40,92,70,39,30.13,29.96,4,0,0,0.00
2013-9-7,78,64,49,63,54,46,89,72,42,29.96,29.72,1,0,0,0.00
2013-9-8,71,63,48,61,52,42,83,68,47,29.98,29.62,8,0,0,0.00
2013-9-9,70,56,43,54,46,40,91,72,41,30.12,29.98,1,0,0,0.00
2013-9-10,73,65,55,70,62,50,96,89,82,30.03,29.91,2,0,0,0.03
2013-9-11,95,80,69,78,73,68,97,81,52,29.94,29.80,0,0,0,0.10
2013-9-12,86,72,66,76,70,65,98,91,72,29.84,29.56,0,0,0,1.06
2013-9-13,75,66,57,70,65,56,98,95,82,29.64,29.46,2,0,0,0.45
2013-9-14,68,59,52,59,55,50,95,86,67,29.93,29.63,4,0,0,0.01
2013-9-15,71,58,48,59,52,47,96,81,53,30.04,29.92,0,0,0,0.01
2013-9-16,66,57,46,58,51,38,93,82,69,30.15,29.89,9,0,0,0.01
2013-9-17,65,50,38,49,42,36,93,74,50,30.31,30.16,6,0,0,0.00
2013-9-18,74,57,43,54,48,42,95,75,39,30.20,30.01,2,0,0,0.00
2013-9-19,75,60,49,56,52,47,95,78,40,30.02,29.92,1,0,0,0.00
2013-9-20,70,59,48,59,54,47,97,85,57,29.99,29.90,0,0,0,0.01
2013-9-21,75,62,47,65,58,46,98,86,66,29.91,29.63,3,0,0,0.01
2013-9-22,72,64,52,66,58,45,96,83,56,29.69,29.48,9,0,0,0.49
2013-9-23,62,52,44,46,43,40,87,73,56,29.87,29.70,5,0,0,0.00
2013-9-24,64,51,42,48,44,39,91,77,51,29.86,29.71,8,0,0,0.00
2013-9-25,64,53,44,52,48,42,95,83,61,29.88,29.76,0,0,0,0.00
2013-9-26,64,56,48,53,50,46,93,81,64,30.02,29.88,5,0,0,0.00
2013-9-27,67,58,51,56,52,50,95,82,57,30.14,30.02,1,0,0,0.00
2013-9-28,69,57,48,59,52,47,97,86,60,30.22,30.14,0,0,0,0.00
2013-9-29,64,52,45,56,48,44,98,87,49,30.16,30.01,0,0,0,0.01
2013-9-30,63,52,46,56,49,45,97,90,61,30.03,29.86,0,0,0,0.01
2013-10-1,77,58,45,60,53,44,97,83,48,29.86,29.73,0,0,0,0.01
2013-10-2,80,66,54,64,59,53,95,79,56,29.82,29.69,2,0,0,0.01
2013-10-3,78,63,54,58,54,48,92,74,37,29.96,29.82,0,0,0,0.00
2013-10-4,64,58,51,59,55,50,96,89,77,29.97,29.92,0,0,0,0.01
2013-10-5,64,59,56,57,55,54,97,88,76,30.02,29.94,2,0,0,0.00
2013-10-6,57,55,53,56,53,48,97,93,78,30.14,30.01,7,0,0,0.19
2013-10-7,74,65,56,70,63,56,98,93,82,30.04,29.69,2,0,0,0.06
2013-10-8,65,56,44,55,46,41,90,73,44,30.27,29.77,2,0,0,0.00
2013-10-9,60,48,38,49,43,36,96,85,63,30.37,30.26,2,0,0,0.00
2013-10-10,61,49,40,54,47,39,97,91,73,30.26,30.08,1,0,0,0.01
2013-10-11,69,54,46,56,49,45,97,85,49,30.07,30.00,0,0,0,0.00
2013-10-12,56,52,47,55,51,46,97,94,89,30.29,30.05,5,1,0,0.01
2013-10-13,61,49,41,52,45,40,98,88,62,30.35,30.28,4,0,0,0.01
2013-10-14,64,49,35,51,44,34,97,84,44,30.29,30.13,4,0,0,0.01
2013-10-15,61,56,51,55,53,50,96,90,77,30.15,30.07,2,0,0,0.00
2013-10-16,60,55,50,55,53,49,98,93,78,30.07,29.80,4,0,0,0.00
2013-10-17,75,61,54,61,54,49,98,81,48,29.80,29.59,3,0,0,0.00
2013-10-18,69,61,52,61,51,39,97,74,47,29.77,29.48,6,0,0,0.10
2013-10-19,67,55,40,49,44,37,93,68,44,29.85,29.64,4,0,0,0.00
2013-10-20,63,54,46,49,42,35,94,66,40,29.89,29.57,5,0,0,0.01
2013-10-21,68,51,36,51,42,34,95,72,41,29.99,29.87,3,0,0,0.00
2013-10-22,64,53,44,53,47,38,96,81,62,29.87,29.59,5,0,0,0.01
2013-10-23,53,45,34,39,36,32,95,72,53,29.68,29.47,2,0,0,0.00
2013-10-24,54,45,38,37,32,28,87,63,41,29.75,29.51,5,0,0,0.00
2013-10-25,50,40,33,36,30,27,89,70,43,30.02,29.75,7,1,0,0.00
2013-10-26,55,43,27,36,30,25,94,64,35,30.02,29.76,7,1,0,0.00
2013-10-27,57,47,37,41,36,28,93,68,47,29.92,29.69,10,1,0,0.04
2013-10-28,59,44,35,38,32,24,82,64,44,30.23,29.92,7,1,0,0.00
2013-10-29,50,36,26,30,26,22,90,70,34,30.33,30.23,3,0,0,0.00
2013-10-30,49,36,28,39,33,26,94,87,65,30.24,30.08,2,0,0,0.02
2013-10-31,60,45,30,58,44,29,97,94,85,30.12,29.67,6,0,0,0.09
2013-11-1,71,65,58,63,58,53,96,78,62,29.66,29.28,12,1,0,0.04
2013-11-2,67,55,47,53,46,42,89,73,40,29.60,29.47,4,0,0,0.00
2013-11-3,50,41,29,46,32,20,93,73,50,30.31,29.61,5,0,0,0.04
2013-11-4,44,32,25,23,20,17,79,63,35,30.59,30.31,4,0,0,0.00
2013-11-5,50,36,25,34,28,20,89,74,48,30.60,30.39,3,0,0,0.00
2013-11-6,62,50,38,49,41,34,87,73,51,30.39,29.89,5,0,0,0.00
2013-11-7,64,54,38,58,49,34,94,85,75,29.89,29.55,7,1,0,0.12
2013-11-8,47,39,33,35,29,25,86,70,51,29.94,29.68,6,1,0,0.01
2013-11-9,44,38,32,30,25,22,72,60,45,30.07,29.93,6,0,0,0.00
2013-11-10,51,44,38,44,38,29,96,81,68,29.92,29.61,4,0,0,0.08
2013-11-11,52,44,39,35,30,27,74,57,39,29.96,29.69,5,1,0,0.01
2013-11-12,48,35,27,38,23,16,92,62,55,30.05,29.75,8,1,0,0.03
2013-11-13,37,29,23,18,14,12,76,56,40,30.15,30.01,8,1,0,0.00
2013-11-14,52,39,28,30,24,15,70,55,39,30.01,29.89,6,1,0,0.00
2013-11-15,58,44,32,29,23,18,67,46,25,30.06,29.98,8,0,0,0.00
2013-11-16,59,42,31,35,30,26,91,64,29,30.20,30.05,0,0,0,0.00
2013-11-17,52,42,31,51,41,29,97,95,90,30.21,29.76,1,0,0,0.09
2013-11-18,66,57,48,61,49,33,98,77,46,29.74,29.39,5,0,0,0.24
2013-11-19,47,38,31,33,22,17,61,53,41,30.14,29.51,9,2,0,0.00
2013-11-20,42,33,26,18,15,13,62,50,33,30.50,30.14,13,1,0,0.00
2013-11-21,47,33,20,27,19,13,81,58,28,30.52,30.25,9,0,0,0.00
2013-11-22,43,40,36,41,37,27,97,89,69,30.24,29.68,3,0,0,0.15
2013-11-23,45,38,30,44,28,14,97,69,46,29.77,29.63,8,1,0,0.00
2013-11-24,29,24,20,20,5,-3,83,47,33,30.02,29.63,20,4,0,0.00
2013-11-25,32,24,17,14,0,-7,54,37,20,30.21,30.02,12,1,0,0.00
2013-11-26,36,33,29,32,24,15,95,72,49,30.21,29.96,5,0,0,0.13
2013-11-27,61,49,34,60,48,32,97,95,84,29.95,29.09,11,2,0,1.70
2013-11-28,37,31,22,32,17,7,85,58,37,30.30,29.28,10,2,0,0.00
2013-11-29,32,24,17,13,9,2,81,55,29,30.62,30.29,7,0,0,0.00
2013-11-30,33,23,11,23,15,8,86,73,58,30.68,30.32,3,0,0,0.00
2013-12-1,37,34,30,36,31,23,96,89,75,30.30,29.90,6,0,0,0.21
2013-12-2,39,37,35,38,36,34,97,96,93,29.90,29.80,3,0,0,0.01
2013-12-3,48,38,32,39,35,30,97,90,69,29.82,29.73,2,0,0,0.00
2013-12-4,40,35,29,30,28,25,91,77,63,30.08,29.81,4,0,0,0.00
2013-12-5,46,37,28,45,35,26,97,93,87,30.11,29.79,0,0,0,0.04
2013-12-6,52,44,33,52,42,32,97,92,74,30.04,29.73,3,0,0,0.12
2013-12-7,38,32,25,34,26,18,96,80,56,30.32,29.96,10,1,0,0.17
2013-12-8,29,26,21,21,18,15,86,72,57,30.46,30.32,3,0,0,0.00
2013-12-9,40,33,26,39,30,17,97,91,66,30.38,29.75,7,0,0,0.38
2013-12-10,34,31,24,32,28,15,97,90,69,29.83,29.65,5,0,0,0.01
2013-12-11,32,26,21,20,17,15,82,69,51,30.05,29.85,7,1,0,0.00
2013-12-12,24,18,12,19,8,0,87,65,37,30.13,29.91,10,1,0,0.00
2013-12-13,28,19,11,19,10,-1,79,67,55,30.29,29.84,8,2,0,0.00
2013-12-14,26,14,7,24,5,-4,94,70,50,30.50,30.10,6,1,0,0.00
2013-12-15,32,24,16,32,23,14,97,94,91,30.08,29.30,20,3,0,0.00
2013-12-16,27,20,12,21,16,6,93,84,72,30.08,29.59,6,0,0,0.02
2013-12-17,17,11,0,14,7,-5,91,84,73,30.16,29.86,6,0,0,0.00
2013-12-18,33,24,14,26,20,12,92,85,70,29.92,29.74,5,0,0,0.14
2013-12-19,41,32,26,27,25,22,84,74,54,29.98,29.82,6,1,0,0.08
2013-12-20,48,38,31,38,32,27,91,80,63,30.00,29.78,2,0,0,0.13
2013-12-21,56,47,38,46,41,33,94,80,65,29.82,29.71,7,0,0,0.01
2013-12-22,46,35,30,45,34,30,97,96,94,29.93,29.69,11,1,0,0.22
2013-12-23,36,32,30,35,31,29,97,97,96,29.99,29.85,2,0,0,0.36
2013-12-24,35,31,25,34,23,11,100,75,53,30.06,29.93,6,0,0,0.00
2013-12-25,24,17,10,13,6,-2,78,61,44,30.43,30.07,9,1,0,0.00
2013-12-26,30,22,15,27,18,9,94,87,76,30.38,29.95,1,0,0,0.01
2013-12-27,34,26,20,24,21,18,92,79,61,30.12,30.05,6,0,0,0.07
2013-12-28,46,34,23,31,26,20,87,73,53,30.07,29.84,7,1,0,0.03
2013-12-29,40,35,29,38,31,26,96,86,71,29.90,29.32,5,1,0,1.03
2013-12-30,42,32,15,36,24,-1,96,74,42,30.05,29.38,6,1,0,0.02
2013-12-31,22,15,8,13,3,-2,80,61,39,30.05,29.90,5,0,0,0.00
2014-1-1,26,20,16,11,8,6,78,62,44,30.27,30.03,6,1,0,0.00
2014-1-2,18,8,-2,12,4,-5,88,84,73,30.25,29.80,12,2,0,0.00